Regional Weather Roundup
Issued by NWS

Home | Current Version | Previous Version | Text Only | Print | Product List | Glossary Off
Versions: 1 2 3 4 5 6 7 8 9 10 11 12 13 14 15 16 17 18 19 20 21 22 23 24 25 26 27 28 29 30 31 32 33 34 35 36 37 38 39 40 41 42 43 44 45 46 47 48 49 50

000
ASUS45 KBOU 251007
RWRCO

WEATHER ROUNDUP FOR COLORADO
NATIONAL WEATHER SERVICE DENVER/BOULDER CO
400 AM MDT MON JUL 25 2016

NOTE: "FAIR" INDICATES FEW OR NO CLOUDS BELOW 12000 FEET WITH NO
SIGNIFICANT WEATHER AND/OR OBSTRUCTIONS TO VISIBILITY.

COZ001>005-013-030-031-251100-
...NORTHWEST COLORADO...

CITY           SKY/WX    TMP DP  RH WIND       PRES   REMARKS
CRAIG          FAIR      46  40  79 CALM      30.24F
HAYDEN         NOT AVBL
MEEKER         FAIR      51  40  65 NE5       30.27S
MOUNT WERNER   NOT AVBL
STEAMBOAT SPGS FAIR      49  40  72 E5        30.30F
WALDEN         FAIR      41  34  75 SE6       30.42S
$$

COZ006>008-011-251100-
...WEST CENTRAL VALLEYS...

CITY           SKY/WX    TMP DP  RH WIND       PRES   REMARKS
GRAND JUNCTION FAIR      70  43  37 E5        30.11R
MONTROSE       FAIR      66  39  37 S10       30.23S
EAGLE          FAIR      52  41  66 CALM      30.35R
RIFLE          FAIR      61  39  44 S3        30.21R
DELTA          FAIR      67  41  38 NE7       30.19R
NUCLA          FAIR     N/A N/A N/A SE13      30.26F
$$

COZ017>023-064>068-251100-
...SOUTHWEST COLORADO...

CITY           SKY/WX    TMP DP  RH WIND       PRES   REMARKS
DURANGO        FAIR      60  46  59 CALM      30.32S
CORTEZ         FAIR      63  46  54 E3        30.24S
PAGOSA SPRINGS FAIR      55  40  58 CALM      30.41S
TELLURIDE      FAIR      58  39  49 SE5       30.51S
WOLF CREEK PAS FAIR      46  37  71 SW13      30.74S
$$

COZ009-010-012-014-032>034-037-058>063-251100-
...CENTRAL COLORADO...

CITY           SKY/WX    TMP DP  RH WIND       PRES   REMARKS
ASPEN          FAIR      50  39  66 CALM      30.38S
BUENA VISTA    FAIR      50  44  80 NW6       30.45S
COPPER MTN     FAIR      54  34  47 S13       30.72S
BERTHOUD PASS  FAIR      46  32  57 W3G18     30.74S
COTTONWOOD PAS FAIR      59  41  51 W3        30.58S
GUNNISON       FAIR      48  39  71 SE5       30.44R
KREMMLING      FAIR      45  41  87 CALM      30.41S
LEADVILLE      FAIR      45  38  76 E6        30.57S
MONARCH PASS   FAIR      46  39  76 NE10      30.82R
SALIDA         FAIR      57  47  69 SW6       30.49S
SUNLIGHT       FAIR      59  32  36 CALM      30.63S
WILKERSON PASS FAIR      46  41  81 W6        30.69S
$$

COZ069>075-251100-
...SAN LUIS VALLEY/SANGRE DE CRISTO MOUNTAINS...

CITY           SKY/WX    TMP DP  RH WIND       PRES   REMARKS
ALAMOSA        FAIR      53  46  77 W8        30.38R
LA VETA PASS   FAIR      54  43  66 CALM      30.58S
SAGUACHE       FAIR      54  45  71 N7        30.43S
$$

COZ035-036-038>040-251100-
...NORTHERN COLORADO FRONT RANGE...

CITY           SKY/WX    TMP DP  RH WIND       PRES   REMARKS
DENVER INTL AP FAIR      61  53  75 S12       30.23F
DMNS CITY PARK   N/A     62  55  79 S3        30.24S
AURORA         PTCLDY    59  54  82 S7        30.25F
FRONT RANGE AP NOT AVBL
ERIE MUNI ARPT FAIR      57  54  90 SW3       30.22S
BOULDER MUN AP FAIR      59  55  88 CALM      30.23S
CENTENNIAL     FAIR      60  52  74 CALM      30.26F
BROOMFIELD     FAIR      57  54  88 W5        30.26R
LONGMONT       FAIR      58  56  90 CALM      30.24S
$$

COZ041-046-047-076>085-087-088-251100-
...PIKES PEAK/PALMER DIVIDE AND SOUTHERN FOOTHILLS...

CITY           SKY/WX    TMP DP  RH WIND       PRES   REMARKS
COLO. SPRINGS  MOCLDY    56  52  86 N5        30.33F
A. F. ACADEMY  FAIR      56  54  92 SE3       30.34F
SCHRIEVER AFB  NOT AVBL
ELLICOTT       FAIR     N/A N/A N/A CALM      30.31F
FALCON         NOT AVBL
FORT CARSON    FAIR      59  55  88 SW1       30.30F
LIMON          FAIR      56  53  90 S3        30.26F
MONUMENT HILL  FAIR      54  52  94 S12       30.36F
TRINIDAD       NOT AVBL
$$

COZ042>045-048>051-090-091-251100-
...NORTHEAST COLORADO...

CITY           SKY/WX    TMP DP  RH WIND       PRES   REMARKS
GREELEY ARPT   FAIR      57  54  88 NE5       30.21F
AKRON          FAIR      58  56  93 W6        30.22R
BURLINGTON     MOCLDY    62  57  83 SW10      30.21R
WRAY           FAIR      61  57  88 CALM      30.18
STERLING       FAIR      59  55  88 CALM      30.19S
HOLYOKE          N/A     59  55  88 CALM      30.20R
FORT MORGAN    FAIR      57  54  91 W7        30.22S
$$

COZ086-089-092>099-251100-
...SOUTHEAST COLORADO...

CITY           SKY/WX    TMP DP  RH WIND       PRES   REMARKS
PUEBLO         FAIR      67  57  70 NE3       30.24F
LA JUNTA       FAIR      63  61  93 NW5       30.20F
LAMAR          FAIR      59  58  96 CALM      30.15F
SPRINGFIELD      N/A     58  55  90 CALM      30.21S
$$



USA.gov is the U.S. government's official web portal to all federal, state and local government web resources and services.